Oakdale, LA

7:24 AM CDT on May 28, 2017 (GMT -0500)
Oakdale

Weather History for KACP - October, 2013

Change the Weather History Date:

Tuesday, October 15, 2013

  Actual Average (KPOE) Record (KPOE)
Temperature  
Mean Temperature 74 °F -  
Max Temperature 85 °F 75 °F 93 °F (2015)
Min Temperature 63 °F 56 °F 48 °F (1997)
Cooling Degree Days 9    
Growing Degree Days 24 (Base 50)    
Moisture  
Dew Point 67 °F    
Average Humidity 83    
Maximum Humidity 96    
Minimum Humidity 52    
Precipitation  
Precipitation 0.00 in - - ()
Sea Level Pressure  
Sea Level Pressure 29.98 in    
Wind  
Wind Speed 1 mph (SSE)    
Max Wind Speed 9 mph    
Max Gust Speed -    
Visibility 7 miles    
Events      
Averages and records for this station are not official NWS values.
T = Trace of Precipitation, MM = Missing Value Source: NWS Daily Summary

Daily Weather History Graph

Daily Weather History Graph

Search for Another Location

Airport or City:

Trip Planner

Search our weather history database for the weather conditions in past years. The results will help you decide how hot, cold, wet, or windy it might be!

Date:

Astronomy

Oct. 15, 2013 Rise Set
Actual Time 7:13 AM CDT 6:39 PM CDT
Civil Twilight 6:49 AM CDT 7:03 PM CDT
Nautical Twilight 6:21 AM CDT 7:31 PM CDT
Astronomical Twilight 5:53 AM CDT 7:59 PM CDT
Moon 4:33 PM CDT (10/15) 3:49 AM CDT (10/15)
Length of Visible Light 12h 14m
Length of Day
11h 25m
Waxing Gibbous, 88% of the Moon is Illuminated
Oct 15
Waxing Gibbous
Oct 18
Full
Oct 26
Last Quarter
Nov 3
New
Nov 9
First Quarter

Hourly Weather History & Observations

Time (CDT) Temp. Heat Index Dew Point Humidity Pressure Visibility Wind Dir Wind Speed Gust Speed Precip Events Conditions
12:15 AM 68.9 °F - 67.3 °F 95% 30.02 in 4.0 mi Calm Calm - N/A   Clear
12:35 AM 68.9 °F - 67.3 °F 95% 30.01 in 4.0 mi Calm Calm - N/A   Clear
12:55 AM 68.5 °F - 67.1 °F 95% 30.01 in 5.0 mi Calm Calm - N/A   Clear
1:15 AM 68.7 °F - 67.1 °F 95% 30.01 in 5.0 mi Calm Calm - N/A   Clear
1:35 AM 68.4 °F - 67.1 °F 96% 30.01 in 3.0 mi Calm Calm - N/A   Clear
1:55 AM 68.2 °F - 66.9 °F 96% 30.00 in 5.0 mi Calm Calm - N/A   Clear
2:15 AM 67.1 °F - 65.8 °F 96% 30.01 in 2.0 mi Calm Calm - N/A   Clear
2:35 AM 66.4 °F - 65.1 °F 96% 30.01 in 1.2 mi Calm Calm - N/A   Mist
2:55 AM 65.7 °F - 64.4 °F 96% 30.01 in 2.0 mi Calm Calm - N/A   Clear
3:15 AM 65.1 °F - 63.9 °F 96% 30.01 in 2.5 mi Calm Calm - N/A   Scattered Clouds
3:35 AM 64.9 °F - 63.7 °F 96% 30.01 in 2.5 mi Calm Calm - N/A   Overcast
3:55 AM 64.6 °F - 63.3 °F 96% 30.01 in 3.0 mi Calm Calm - N/A   Overcast
4:15 AM 64.4 °F - 63.0 °F 95% 30.00 in 3.0 mi Calm Calm - N/A   Mostly Cloudy
4:35 AM 64.0 °F - 62.8 °F 96% 30.00 in 3.0 mi Calm Calm - N/A   Overcast
4:55 AM 63.5 °F - 62.2 °F 96% 30.00 in 4.0 mi Calm Calm - N/A   Overcast
5:15 AM 63.7 °F - 62.6 °F 96% 30.01 in 3.0 mi Calm Calm - N/A   Overcast
5:35 AM 63.5 °F - 62.4 °F 96% 30.01 in 1.2 mi Calm Calm - N/A   Overcast
5:55 AM 63.5 °F - 62.1 °F 95% 30.00 in 4.0 mi Calm Calm - N/A   Mostly Cloudy
6:15 AM 63.7 °F - 62.4 °F 96% 30.01 in 4.0 mi Calm Calm - N/A   Scattered Clouds
6:35 AM 64.2 °F - 63.0 °F 96% 30.01 in 3.0 mi Calm Calm - N/A   Mostly Cloudy
6:55 AM 63.5 °F - 62.2 °F 96% 30.01 in 1.8 mi Calm Calm - N/A   Mostly Cloudy
7:15 AM 63.7 °F - 62.4 °F 96% 30.01 in 2.5 mi Calm Calm - N/A   Overcast
7:35 AM 64.2 °F - 62.8 °F 95% 30.01 in 2.0 mi Calm Calm - N/A   Overcast
7:55 AM 64.6 °F - 63.5 °F 96% 30.02 in 1.8 mi Calm Calm - N/A   Overcast
8:15 AM 66.4 °F - 65.3 °F 96% 30.03 in 1.5 mi Calm Calm - N/A   Overcast
8:35 AM 69.1 °F - 67.8 °F 96% 30.03 in 2.5 mi Calm Calm - N/A   Overcast
8:55 AM 71.4 °F - 68.5 °F 91% 30.04 in 5.0 mi Calm Calm - N/A   Mostly Cloudy
9:15 AM 72.1 °F - 68.9 °F 89% 30.04 in 7.0 mi Calm Calm - N/A   Overcast
9:35 AM 73.4 °F - 69.4 °F 87% 30.03 in 10.0 mi ESE 3.5 mph - N/A   Mostly Cloudy
9:55 AM 76.1 °F - 70.5 °F 83% 30.02 in 10.0 mi SE 3.5 mph - N/A   Scattered Clouds
10:15 AM 78.1 °F - 70.0 °F 76% 30.02 in 10.0 mi SSE 4.6 mph - N/A   Clear
10:35 AM 79.7 °F - 69.1 °F 70% 30.02 in 10.0 mi SSE 5.8 mph - N/A   Clear
10:55 AM 79.9 °F - 69.4 °F 70% 30.02 in 10.0 mi SSW 5.8 mph - N/A   Scattered Clouds
11:15 AM 80.4 °F 83.2 °F 68.4 °F 67% 30.02 in 10.0 mi South 5.8 mph - N/A   Scattered Clouds
11:35 AM 81.3 °F 84.3 °F 68.4 °F 65% 30.01 in 10.0 mi SSE 8.1 mph - N/A   Scattered Clouds
11:55 AM 81.0 °F 83.9 °F 68.5 °F 66% 30.00 in 10.0 mi SSE 6.9 mph - N/A   Scattered Clouds
12:15 PM 81.5 °F 84.2 °F 67.8 °F 63% 29.99 in 10.0 mi South 3.5 mph - N/A   Scattered Clouds
12:35 PM 81.9 °F 84.8 °F 68.2 °F 63% 29.99 in 10.0 mi South 6.9 mph - N/A   Scattered Clouds
12:55 PM 83.7 °F 86.5 °F 67.6 °F 58% 29.99 in 10.0 mi SSE 8.1 mph - N/A   Scattered Clouds
1:15 PM 83.7 °F 86.7 °F 67.8 °F 59% 29.98 in 10.0 mi South 4.6 mph - N/A   Mostly Cloudy
1:35 PM 84.6 °F 87.1 °F 66.9 °F 55% 29.96 in 10.0 mi South 5.8 mph - N/A   Mostly Cloudy
1:55 PM 84.4 °F 86.8 °F 66.6 °F 55% 29.95 in 10.0 mi South 5.8 mph - N/A   Scattered Clouds
2:15 PM 85.5 °F 87.6 °F 66.2 °F 52% 29.94 in 10.0 mi SSE 6.9 mph - N/A   Clear
2:35 PM 84.7 °F 86.6 °F 65.5 °F 52% 29.94 in 10.0 mi SSW 9.2 mph - N/A   Scattered Clouds
2:55 PM 85.1 °F 87.4 °F 66.0 °F 53% 29.94 in 10.0 mi South 5.8 mph - N/A   Mostly Cloudy
3:15 PM 83.8 °F 86.3 °F 66.4 °F 56% 29.93 in 10.0 mi Calm Calm - N/A   Scattered Clouds
3:35 PM 84.4 °F 87.1 °F 67.1 °F 56% 29.93 in 10.0 mi SSE 5.8 mph - N/A   Scattered Clouds
3:55 PM 83.1 °F 85.7 °F 67.1 °F 58% 29.93 in 10.0 mi SSE 3.5 mph - N/A   Scattered Clouds
4:15 PM 84.2 °F 86.8 °F 66.9 °F 56% 29.92 in 10.0 mi SSE 4.6 mph - N/A   Scattered Clouds
4:35 PM 84.2 °F 86.6 °F 66.6 °F 55% 29.92 in 10.0 mi South 9.2 mph - N/A   Scattered Clouds
4:55 PM 80.1 °F 82.6 °F 67.8 °F 66% 29.92 in 10.0 mi Calm Calm - N/A   Scattered Clouds
5:15 PM 78.8 °F - 69.1 °F 72% 29.92 in 10.0 mi Calm Calm - N/A   Mostly Cloudy
5:35 PM 78.8 °F - 70.0 °F 74% 29.92 in 10.0 mi Calm Calm - N/A   Overcast
5:55 PM 79.9 °F - 69.8 °F 71% 29.92 in 10.0 mi Calm Calm - N/A   Mostly Cloudy
6:15 PM 78.1 °F - 70.7 °F 78% 29.92 in 10.0 mi Calm Calm - N/A   Scattered Clouds
6:35 PM 75.6 °F - 70.7 °F 85% 29.91 in 10.0 mi Calm Calm - N/A   Clear
6:55 PM 73.0 °F - 70.2 °F 91% 29.92 in 10.0 mi Calm Calm - N/A   Scattered Clouds
7:15 PM 73.2 °F - 70.9 °F 92% 29.93 in 10.0 mi Calm Calm - N/A   Mostly Cloudy
7:55 PM 72.7 °F - 70.3 °F 92% 29.95 in 10.0 mi Calm Calm - N/A   Overcast
8:15 PM 72.3 °F - 69.8 °F 92% 29.95 in 10.0 mi Calm Calm - N/A   Mostly Cloudy
8:35 PM 72.3 °F - 68.9 °F 89% 29.96 in 10.0 mi Calm Calm - N/A   Scattered Clouds
8:55 PM 70.9 °F - 68.9 °F 93% 29.96 in 10.0 mi Calm Calm - N/A   Clear
9:15 PM 69.6 °F - 68.0 °F 95% 29.97 in 10.0 mi Calm Calm - N/A   Clear
9:35 PM 68.7 °F - 67.1 °F 95% 29.97 in 10.0 mi Calm Calm - N/A   Clear
9:55 PM 68.0 °F - 66.4 °F 95% 29.97 in 7.0 mi Calm Calm - N/A   Clear
10:15 PM 68.0 °F - 66.6 °F 95% 29.97 in 7.0 mi Calm Calm - N/A   Clear
10:35 PM 67.6 °F - 66.2 °F 95% 29.98 in 7.0 mi Calm Calm - N/A   Clear
10:55 PM 67.1 °F - 65.7 °F 95% 29.97 in 7.0 mi Calm Calm - N/A   Clear
11:15 PM 66.2 °F - 65.1 °F 96% 29.96 in 7.0 mi Calm Calm - N/A   Clear
11:35 PM 66.9 °F - 65.7 °F 96% 29.96 in 5.0 mi Calm Calm - N/A   Scattered Clouds
11:55 PM 66.0 °F - 64.8 °F 96% 29.95 in 7.0 mi Calm Calm - N/A   Scattered Clouds